Regional Weather Roundup
Issued by NWS Goodland, KS

Home | Current Version | Previous Version | Text Only | Print | Product List | Glossary Off
Versions: 1 2 3 4 5 6 7 8 9 10 11 12 13 14 15 16 17 18 19 20 21 22 23 24 25 26 27 28 29 30 31 32 33 34 35 36 37 38 39 40 41 42 43 44 45 46 47 48 49 50

000
ASUS43 KGLD 271608
RWRGLD

GOODLAND FORECAST AREA HOURLY WEATHER ROUNDUP
NATIONAL WEATHER SERVICE GOODLAND KS
1000 AM MDT SAT MAY 27 2017

...OFFICIAL OBSERVATIONS...

CITY           SKY/WX    TMP DP  RH WIND       PRES   REMARKS
GOODLAND KS    CLOUDY    57  53  86 NW17      30.00R
HILL CITY KS   MOSUNNY   70  59  68 NW10      29.91R
IMPERIAL NEB   CLOUDY    57  50  77 N15       30.01S
MCCOOK NEB     MOSUNNY   67  55  65 NE7       29.94S
AKRON CO       PTSUNNY   56  44  64 N17       30.06R
BURLINGTON CO  CLOUDY    58  50  75 N18G26    30.03S
LIMON CO       PTSUNNY   57  43  59 N16G25    30.08S
$$

...UNOFFICIAL OBSERVATIONS...

CITY           SKY/WX    TMP DP  RH WIND       PRES   REMARKS
LENORA KS        N/A     63  32  31 MISG        N/A
NORTON KS      CLOUDY    64  55  72 NE7       29.91S
SHARON SPRINGS   N/A     60  52  75 NW18G25     N/A
TRENTON NEB      N/A     56  32  40 NW12        N/A
$$




USA.gov is the U.S. government's official web portal to all federal, state and local government web resources and services.